Flag for Bosnia-Herzegovina Weather past 2 weeks in Banja Luka, Bosnia-Herzegovina

Now
66 °F

Sunny.


Feels Like: 66 °F
Forecast: 39 / 66 °F
Wind: 12 mph from West

Location: Banja Luka

Current Time: Mar 30, 2015 at 7:05:32 PM

Latest Report: Mar 30, 2015 at 6:30 PM


Visibility: 10 mi

Pressure: 29.59 "Hg

Humidity: 35%

Dew point: 37 °F

Location of Banja LukaLocation

Historic Weather in Banja Luka — Graph

°F

Banja Luka temperature yesterday

Maximum temperature yesterday: 61 °F (at 5:00 PM)
Minimum temperature yesterday: 30 °F (at 6:00 AM)
Average temperature yesterday: 46 °F

Past Weeks' High & Low Weather Summary

 TemperatureHumidityPressure
High70 °F (Mar 26, 1:00 PM)100% (Mar 16, 6:00 AM)30.42 "Hg (Mar 16, 6:00 AM)
Low30 °F (Mar 18, 5:30 AM)24% (Mar 21, 3:00 PM)29.50 "Hg (Mar 30, 2:30 PM)
Average47 °F67%30.03 "Hg
* Reported Mar 15 5:00 PM — Mar 30 6:00 PM, Banja Luka, Weather by CustomWeather, © 2015

Note: Actual official high and low records may vary slightly from our data, if they occured in-between our weather recording intervals... More about our weather records

Advertising

Banja Luka weather history for previous 24 hours

 ConditionsComfort  
Time TempWeatherWind HumidityBarometerVisibility
6:00 PM
Mon, Mar 30
66 °FSunny.15 mph35%29.56 "Hg10 mi
5:30 PM66 °FSunny.14 mph35%29.56 "Hg10 mi
5:00 PM68 °FSunny.17 mph33%29.56 "Hg10 mi
4:30 PM68 °FSunny.18 mph33%29.53 "Hg10 mi
4:00 PM70 °FSunny.14 mph33%29.50 "Hg10 mi
3:30 PM68 °FSunny.10 mph35%29.50 "Hg10 mi
3:00 PM68 °FSunny.10 mph35%29.50 "Hg10 mi
2:30 PM66 °FSunny.16 mph37%29.50 "Hg10 mi
2:00 PM64 °FSunny.18 mph43%29.53 "Hg10 mi
1:30 PM64 °FPassing clouds.14 mph40%29.53 "HgN/A
1:00 PM63 °FPassing clouds.14 mph42%29.56 "HgN/A
12:30 PM63 °FPassing clouds.18 mph42%29.56 "HgN/A
12:00 PM61 °FPassing clouds.15 mph42%29.56 "HgN/A
11:30 AM63 °FPassing clouds.16 mph39%29.56 "HgN/A
11:00 AM63 °FPassing clouds.9 mph37%29.59 "HgN/A
10:30 AM57 °FPassing clouds.5 mph51%29.59 "HgN/A
10:00 AM57 °FPassing clouds.3 mph48%29.59 "HgN/A
9:30 AM57 °FPassing clouds.2 mph44%29.59 "HgN/A
9:00 AM57 °FLight rain. Scattered clouds.10 mph44%29.59 "HgN/A
8:30 AM57 °FLight rain. Scattered clouds.14 mph44%29.59 "HgN/A
8:00 AM57 °FLight rain. Scattered clouds.8 mph44%29.59 "HgN/A
7:30 AM55 °FLight rain. Passing clouds.9 mph47%29.59 "HgN/A
7:00 AM46 °FClear.2 mph76%29.59 "Hg10 mi
6:30 AM46 °FClear.5 mph76%29.59 "Hg10 mi
6:00 AM46 °FClear.3 mph71%29.59 "Hg10 mi
5:30 AM48 °FClear.5 mph62%29.59 "Hg10 mi
5:00 AM48 °FClear.5 mph66%29.62 "Hg10 mi
4:30 AM48 °FClear.3 mph66%29.59 "Hg10 mi
4:00 AM46 °FClear.2 mph71%29.62 "Hg10 mi
3:30 AM50 °FClear.7 mph62%29.62 "Hg10 mi
3:00 AM46 °FClear.3 mph76%29.65 "Hg10 mi
2:30 AM46 °FClear.2 mph71%29.65 "Hg10 mi
2:00 AM46 °FClear.2 mph76%29.68 "Hg10 mi
1:30 AM46 °FClear.5 mph71%29.68 "Hg10 mi
1:00 AM45 °FClear.2 mph76%29.68 "Hg10 mi
12:30 AM45 °FClear.5 mph76%29.68 "Hg10 mi
12:00 AM46 °FClear.2 mph71%29.71 "Hg10 mi
11:30 PM
Sun, Mar 29
46 °FClear.6 mph71%29.74 "Hg10 mi
11:00 PM46 °FClear.6 mph71%29.74 "Hg10 mi
10:30 PM46 °FClear.5 mph71%29.74 "Hg10 mi
10:00 PM50 °FClear.6 mph58%29.77 "Hg10 mi
9:30 PM48 °FClear.6 mph66%29.77 "Hg10 mi
9:00 PM50 °FClear.6 mph62%29.77 "Hg10 mi
8:30 PM50 °FClear.6 mph62%29.80 "Hg10 mi
8:00 PM52 °FSunny.5 mph54%29.80 "Hg10 mi
7:30 PM54 °FSunny.3 mph51%29.80 "Hg10 mi
7:00 PM59 °FSunny.7 mph42%29.80 "Hg10 mi
Weather by CustomWeather, © 2015

See weather overviewHow to use our weather pages